Content
SEND FEEDBACK

Daily
Averages
Monthly
Summary
Switzerland

ZÜRICH, SWITZERLAND


Home > Europe > Switzerland
Elevation: 1867 feet     Latitude: 47 23N     Longitude: 008 34E

WEATHER
 
SELECT A DAY
Number of Records: 290,739;   Date Range: 7/1/96 - 12/19/14
 
SHARE

PRINT THIS DATA

[ ← Previous Day ]
WEATHER ALMANAC - OCTOBER 22, 2013
[ Next Day → ]
[ °C ]   °F
Weather ElementAverageHighLow
Temperature55.2 °F68 °F (4:50 pm)50 °F (4:50 am)
Dewpoint52.7 °F57.2 °F (3:50 pm)50 °F (4:50 am)
Humidity92 %100 % (1:50 am)68 % (4:50 pm)
Barometer29.91 in30.04 in (1:50 am)29.77 in (10:50 pm)
Wind Speed2 mph6.9 mph (11:50 am)
Weather ElementAverage
Visibility2.7 mi
Wind DirectionE (92.6 °)

Weather ElementTotal
Precipitation---
Heating Degree Days6 (Base 65)
Growing Degree Days9 (Base 50)
Averaged from 23 records on October 22, 2013
WEATHER CONDITIONS BREAKOUT
WIND DIRECTION BREAKOUT
WEATHER BY HOUR - OCTOBER 22, 2013
[ °C ]   °F
Local TimeTemperatureDewpointHumidityBarometerVisibilityWind DirectionWind SpeedGust SpeedPrecipitationEventsConditions
1:50 AM51.8 °F51.8 °F100 %30.04 in0.2 miCalmFogFog
2:50 AM51.8 °F51.8 °F100 %30.04 in0.2 miESE (110°)2.3 mphFogFog
3:50 AM51.8 °F51.8 °F100 %30.04 in0.2 miEast (90°)3.5 mphFogFog
4:50 AM50.0 °F50.0 °F100 %30.01 in0.2 miESE (110°)2.3 mphFogFog
5:50 AM50.0 °F50.0 °F100 %30.01 in0.2 miCalmMist
6:50 AM50.0 °F50.0 °F100 %30.01 in0.2 miCalmFogFog
7:50 AM50.0 °F50.0 °F100 %29.98 inESE (110°)2.3 mphFogFog
8:50 AM50.0 °F50.0 °F100 %29.98 in0.1 miCalmFogFog
9:50 AM50.0 °F50.0 °F100 %29.98 in0.2 miVariable2.3 mphFogFog
10:50 AM51.8 °F51.8 °F100 %29.95 in2.2 miNNW (340°)3.5 mphMostly Cloudy
11:50 AM53.6 °F51.8 °F94 %29.95 in1.6 miNW (310°)6.9 mphOvercast
12:50 PM57.2 °F55.4 °F94 %29.92 in5.0 miNW (310°)4.6 mphPartly Cloudy
1:50 PM62.6 °F55.4 °F77 %29.92 inWNW (300°)4.6 mphClear
2:45 PM64.4 °F55.4 °F73 %29.89 inVariable1.2 mphClear
3:50 PM66.2 °F57.2 °F73 %29.86 inCalmClear
4:50 PM68.0 °F57.2 °F68 %29.83 inCalmClear
5:50 PM66.2 °F57.2 °F73 %29.80 in6.2 miCalm
6:50 PM59.0 °F55.4 °F88 %29.80 in6.2 miVariable2.3 mph
7:50 PM57.2 °F53.6 °F88 %29.80 in6.2 miCalm
8:50 PM53.6 °F53.6 °F100 %29.80 in6.2 miVariable1.2 mph
9:50 PM53.6 °F51.8 °F94 %29.80 in6.2 miSE (140°)3.5 mph
10:50 PM51.8 °F50.0 °F94 %29.77 in0.8 miCalm
11:50 PM50.0 °F50.0 °F100 %29.80 in6.2 miNW (310°)4.6 mphScattered Clouds
Hourly data recorded from LSMD, located miles away from Zürich, Switzerland







STORIES FROM OUR PARTNERS